Phoenix Deer Valley, AZ

11:47 PM MST on May 22, 2018 (GMT -0700)
Phoenix-Deer Valley Municipal

Weather History for KDVT - November, 2012

Change the Weather History Date:

Monday, November 19, 2012

  Actual Average Record
Temperature  
Mean Temperature 65 °F -  
Max Temperature 75 °F 69 °F 88 °F (2006)
Min Temperature 55 °F 48 °F 41 °F (2000)
Growing Degree Days 15 (Base 50)    
Moisture  
Dew Point 39 °F    
Average Humidity 39    
Maximum Humidity 53    
Minimum Humidity 25    
Precipitation  
Precipitation 0.00 in - - ()
Sea Level Pressure  
Sea Level Pressure 30.11 in    
Wind  
Wind Speed 5 mph (NNE)    
Max Wind Speed 9 mph    
Max Gust Speed -    
Visibility 10 miles    
Events      
Averages and records for this station are not official NWS values.
T = Trace of Precipitation, MM = Missing Value Source: NWS Daily Summary

Daily Weather History Graph

Daily Weather History Graph

Search for Another Location

Airport or City:

Astronomy

Nov. 19, 2012 Rise Set
Actual Time 7:04 AM MST 5:22 PM MST
Civil Twilight 6:37 AM MST 5:49 PM MST
Nautical Twilight 6:07 AM MST 6:19 PM MST
Astronomical Twilight 5:37 AM MST 6:49 PM MST
Moon 12:15 PM MST (11/19) 11:46 PM MST (11/19)
Length of Visible Light 11h 11m
Length of Day
10h 18m
Waxing Crescent, 41% of the Moon is Illuminated
Nov 19
Waxing Crescent
Nov 20
First Quarter
Nov 28
Full
Dec 6
Last Quarter
Dec 13
New

Hourly Weather History & Observations

Time (MST) Temp. Dew Point Humidity Pressure Visibility Wind Dir Wind Speed Gust Speed Precip Events Conditions
12:53 AM 57.9 °F 37.9 °F 47% 30.08 in 10.0 mi NNE 5.8 mph - N/A   Clear
1:53 AM 60.1 °F 39.0 °F 46% 30.08 in 10.0 mi NE 5.8 mph - N/A   Clear
2:53 AM 59.0 °F 39.0 °F 48% 30.08 in 10.0 mi NE 6.9 mph - N/A   Clear
3:53 AM 57.0 °F 39.0 °F 51% 30.08 in 10.0 mi NNE 6.9 mph - N/A   Clear
4:53 AM 55.0 °F 37.9 °F 53% 30.09 in 10.0 mi NNE 5.8 mph - N/A   Clear
5:53 AM 57.0 °F 39.0 °F 51% 30.09 in 10.0 mi NNE 8.1 mph - N/A   Clear
6:53 AM 55.9 °F 39.0 °F 53% 30.13 in 10.0 mi NNE 6.9 mph - N/A   Clear
7:53 AM 57.0 °F 39.0 °F 51% 30.15 in 10.0 mi NNE 4.6 mph - N/A   Clear
8:53 AM 62.1 °F 39.9 °F 44% 30.17 in 10.0 mi Calm Calm - N/A   Clear
9:53 AM 64.9 °F 41.0 °F 42% 30.17 in 10.0 mi Calm Calm - N/A   Clear
10:53 AM 69.1 °F 41.0 °F 36% 30.17 in 10.0 mi South 3.5 mph - N/A   Clear
11:53 AM 72.0 °F 41.0 °F 33% 30.15 in 10.0 mi Calm Calm - N/A   Clear
12:53 PM 75.0 °F 39.9 °F 28% 30.12 in 10.0 mi Calm Calm - N/A   Clear
1:53 PM 75.9 °F 39.9 °F 27% 30.09 in 10.0 mi Calm Calm - N/A   Clear
2:53 PM 75.9 °F 37.9 °F 25% 30.08 in 10.0 mi SE 5.8 mph - N/A   Clear
3:53 PM 75.9 °F 37.9 °F 25% 30.08 in 10.0 mi West 4.6 mph - N/A   Clear
4:53 PM 75.0 °F 37.0 °F 25% 30.08 in 10.0 mi SSE 4.6 mph - N/A   Clear
5:53 PM 72.0 °F 37.9 °F 29% 30.09 in 10.0 mi West 3.5 mph - N/A   Clear
6:53 PM 68.0 °F 39.0 °F 35% 30.11 in 10.0 mi NNW 3.5 mph - N/A   Clear
7:53 PM 66.9 °F 39.9 °F 37% 30.12 in 10.0 mi North 4.6 mph - N/A   Clear
8:53 PM 63.0 °F 36.0 °F 37% 30.13 in 10.0 mi Calm Calm - N/A   Clear
9:53 PM 63.0 °F 37.0 °F 38% 30.12 in 10.0 mi NNE 9.2 mph - N/A   Clear
10:53 PM 63.0 °F 37.0 °F 38% 30.11 in 10.0 mi NNE 9.2 mph - N/A   Clear
11:53 PM 60.1 °F 36.0 °F 41% 30.10 in 10.0 mi Calm Calm - N/A   Clear